NOAA 16 DEB, 41205

Orbit data source: Space-Track

NOAA 16 DEB, 41205 is space debris in SSO originally from a launch on Thu, 21 Sep 2000 UTC launched from the Air Force Western Test Range (AFWTR). Debris objects in space refer to the collection of defunct objects orbiting the Earth. Examples of debris include non-operational satellites, rocket bodies, and fragments generated from explosions, collisions, or faulty payload assembly.

Loading next visibility...
Identifier
41205, 2000-055DJ
Orbit
SSO
Country
Flag of USUS
Related business
Manufacturer
Unknown
Mission
Spacecraft
Bus & Motor
Unknown
Mass
Unknown
Launch date (UTC)
2000-09-21 (26 years ago)
Launch vehicle
Unknown
Launch site
Air Force Western Test Range (AFWTR)
Object type
Payload
Rocket body
Debris
Shape & HBR
Unknown shape, 0.1 m
Radar Cross Section
Medium (>0.1 m² and <1 m²)

Expand to show TLE details & history
Last TLE update: 3 days ago

TLE from 3 days ago
0 NOAA 16 DEB
1 41205U 00055DJ  26170.52615721  .00023157  00000-0  28365-2 0  9991
2 41205  98.9455  21.8485 0013408  41.7445 318.4786 14.83110799547425
Epoch: 2026-06-19T12:37Z
TLE epoch observation values (Epoch: 2026-06-19T12:37:39.982Z)
Latitude
-0.00004°
Longitude
-75.32196°
Altitude
615.494 km
Speed
7.555 km/s
True Right ascension
01h 27m 23s
True Declination
0° 00' 00"
Sunlit
Object was in daylight at epoch
Visualization orbit readout
Latitude
Unknown
Longitude
Unknown
Altitude
Unknown
Speed
Unknown
Apparent Right ascension
Unknown
Apparent Declination
Unknown
Sunlit
N/A
Visualization observer readout
Local Sidereal Time
19:56:35
Azimuth
Unknown
Elevation
Unknown
Doppler factor
Unknown
Orbital elements
Apogee altitude
625.987 km
Perigee altitude
607.23 km
Semi-major axis
6,994.746 km
Eccentricity
0.00134
Inclination
98.9455°
RAAN
21.8485°
Arg. of periapsis
41.7445°
True anomaly
318.37662°
Mean anomaly
318.4786°
Eccentric anomaly
318.42762°
Mean motion
3.7101 °/min
Orbital period
97.03 mins
BSTAR
0.0028365
Loading maneuver chart data...
Computing Atmospheric mass density...

Documentation

Showing up to 5 results
|